Regional Weather Roundup
Issued by NWS

Home | Current Version | Previous Version | Graphics & Text | Print | Product List | Glossary On
Versions: 1 2 3 4 5 6 7 8 9 10 11 12 13 14 15 16 17 18 19 20 21 22 23 24 25 26 27 28 29 30 31 32 33 34 35 36 37 38 39 40 41 42 43 44 45 46 47 48 49 50
552
ASUS43 KLMK 190510
RWRKY
KENTUCKY REGIONAL WEATHER ROUNDUP
NATIONAL WEATHER SERVICE LOUISVILLE KY
100 AM EDT THU APR 19 2018

NOTE "FAIR" INDICATES FEW OR NO CLOUDS BELOW 12,000 FEET
WITH NO SIGNIFICANT WEATHER AND/OR OBSTRUCTIONS TO VISIBILITY.

KYZ001>023-026-027-061>063-070>075-190600-
WESTERN AND SOUTH CENTRAL KENTUCKY

CITY           SKY/WX    TMP DP  RH WIND       PRES   REMARKS
PADUCAH        FAIR      49  33  54 NW20G30   30.03R
HENDERSON      CLOUDY    46  35  65 NW17G24   30.03R
OWENSBORO      CLOUDY    47  35  63 NW15G30   30.01R
HOPKINSVILLE   FAIR      50  37  60 NW10      30.00R
BOWLING GREEN  FAIR      52  38  58 NW9G21    29.97R
GLASGOW        MOCLDY    51  38  60 NW14      29.95R
$$

KYZ024-025-028>034-038-045-046-053-190600-
NORTH CENTRAL KENTUCKY

CITY           SKY/WX    TMP DP  RH WIND       PRES   REMARKS
LOUISVILLE/SDF CLOUDY    47  33  58 NW24G35   29.95R
LOUISVILLE/LOU CLOUDY    48  34  58 W20G28    29.94R
FORT KNOX      CLOUDY    47  34  60 NW13      29.95R
$$

KYZ035>037-039>044-047>052-055>060-089>105-190600-
NORTHEAST KENTUCKY

CITY           SKY/WX    TMP DP  RH WIND       PRES   REMARKS
LEXINGTON      CLOUDY    50  37  61 NW16G30   29.88R
COVINGTON      CLOUDY    45  34  65 NW15      29.86R
FRANKFORT      CLOUDY    49  33  54 W16G30    29.88R
$$

KYZ054-064>069-076>088-106>120-190600-
SOUTHEAST KENTUCKY

CITY           SKY/WX    TMP DP  RH WIND       PRES   REMARKS
JACKSON        LGT RAIN  57  53  86 W8        29.80S
LONDON         RAIN      57  53  86 NW10      29.82R FOG
SOMERSET       DRIZZLE   54  45  71 N18G26    29.89R
MIDDLESBORO    HVY RAIN  62  57  86 W14G20    29.83R
MONTICELLO     LGT RAIN  55  48  77 NW14G25   29.90R
$$





USA.gov is the U.S. government's official web portal to all federal, state and local government web resources and services.